KLM86K EGPH-EHAM

Flight info

Callsign KLM86K
Flight time 1h 1m
Altitude 35000
Route TLA Y96 NATEB DCT ROKAN DCT TOPPA
Aircraft B738/M-SDE2E3FGHIRWXY/LB1

Departure

Time 2026-05-03 20:39
Airport Edinburgh Airport (EGPH)

Arrival

Time 2026-05-03 21:40
Airport Amsterdam Airport Schiphol (EHAM)
Time Latitude Longitude Altitude Speed Heading
2026-05-03 20:23 55.94885 -3.36553 115 ft 0 kts 148°
2026-05-03 20:28 55.94888 -3.36556 115 ft 3 kts 148°
2026-05-03 20:28 55.94907 -3.36576 112 ft 3 kts 149°
2026-05-03 20:28 55.94930 -3.36592 111 ft 4 kts 187°
2026-05-03 20:29 55.94952 -3.36575 112 ft 4 kts 230°
2026-05-03 20:29 55.94958 -3.36561 111 ft 0 kts 238°
2026-05-03 20:31 55.94957 -3.36564 111 ft 1 kts 238°
2026-05-03 20:31 55.94935 -3.36628 115 ft 11 kts 238°
2026-05-03 20:31 55.94897 -3.36774 112 ft 13 kts 272°
2026-05-03 20:31 55.94922 -3.36910 115 ft 12 kts 251°
2026-05-03 20:32 55.94877 -3.37042 115 ft 14 kts 238°
2026-05-03 20:32 55.94815 -3.37223 115 ft 20 kts 239°
2026-05-03 20:32 55.94739 -3.37449 115 ft 21 kts 239°
2026-05-03 20:32 55.94663 -3.37673 112 ft 21 kts 239°
2026-05-03 20:33 55.94586 -3.37900 112 ft 21 kts 239°
2026-05-03 20:33 55.94510 -3.38125 114 ft 21 kts 239°
2026-05-03 20:33 55.94436 -3.38342 113 ft 20 kts 239°
2026-05-03 20:33 55.94365 -3.38552 114 ft 17 kts 239°
2026-05-03 20:34 55.94313 -3.38705 113 ft 12 kts 239°
2026-05-03 20:34 55.94284 -3.38791 115 ft 0 kts 239°
2026-05-03 20:34 55.94281 -3.38801 114 ft 3 kts 245°
2026-05-03 20:34 55.94289 -3.38865 115 ft 6 kts 312°
2026-05-03 20:35 55.94321 -3.38904 115 ft 1 kts 328°
2026-05-03 20:36 55.94328 -3.38911 115 ft 4 kts 328°
2026-05-03 20:36 55.94374 -3.38961 113 ft 10 kts 329°
2026-05-03 20:36 55.94432 -3.38922 113 ft 10 kts 58°
2026-05-03 20:36 55.94439 -3.38903 113 ft 0 kts 59°
2026-05-03 20:38 55.94536 -3.38616 111 ft 64 kts 59°
2026-05-03 20:39 55.94888 -3.37577 112 ft 130 kts 58°
2026-05-03 20:39 55.95445 -3.35970 377 ft 161 kts 57°
2026-05-03 20:39 55.96062 -3.34256 1067 ft 170 kts 53°
2026-05-03 20:39 55.96959 -3.32775 1766 ft 178 kts 39°
2026-05-03 20:40 55.97846 -3.31210 2463 ft 189 kts 56°
2026-05-03 20:40 55.98228 -3.28840 2802 ft 210 kts 89°
2026-05-03 20:40 55.98190 -3.26126 3102 ft 229 kts 90°
2026-05-03 20:40 55.98152 -3.23151 3355 ft 252 kts 89°
2026-05-03 20:41 55.98119 -3.19955 3950 ft 262 kts 89°
2026-05-03 20:41 55.98084 -3.16687 4803 ft 264 kts 89°
2026-05-03 20:41 55.98046 -3.13351 5305 ft 274 kts 89°
2026-05-03 20:41 55.97941 -3.09966 5524 ft 274 kts 101°
2026-05-03 20:42 55.96910 -3.07200 5764 ft 275 kts 146°
2026-05-03 20:42 55.95113 -3.05975 6009 ft 282 kts 168°
2026-05-03 20:42 55.93161 -3.05547 5994 ft 283 kts 175°
2026-05-03 20:42 55.91206 -3.05319 5981 ft 280 kts 176°
2026-05-03 20:43 55.89264 -3.05123 5990 ft 279 kts 177°
2026-05-03 20:43 55.87316 -3.04919 6025 ft 283 kts 176°
2026-05-03 20:43 55.85338 -3.04696 6620 ft 286 kts 176°
2026-05-03 20:43 55.83366 -3.04463 7547 ft 282 kts 176°
2026-05-03 20:44 55.81405 -3.04293 8378 ft 283 kts 178°
2026-05-03 20:44 55.79426 -3.04006 9167 ft 286 kts 175°
2026-05-03 20:44 55.77438 -3.03712 9961 ft 288 kts 177°
2026-05-03 20:44 55.75412 -3.03425 10433 ft 302 kts 175°
2026-05-03 20:45 55.73240 -3.03098 10594 ft 325 kts 176°
2026-05-03 20:45 55.70912 -3.02812 10841 ft 343 kts 177°
2026-05-03 20:45 55.68503 -3.02517 11392 ft 351 kts 176°
2026-05-03 20:45 55.66055 -3.02193 12077 ft 354 kts 176°
2026-05-03 20:46 55.63585 -3.01883 12801 ft 358 kts 176°
2026-05-03 20:46 55.61080 -3.01563 13516 ft 363 kts 176°
2026-05-03 20:46 55.58554 -3.01233 14188 ft 367 kts 177°
2026-05-03 20:46 55.55997 -3.00897 14899 ft 369 kts 176°
2026-05-03 20:47 55.53430 -3.00559 15626 ft 371 kts 177°
2026-05-03 20:47 55.50839 -3.00223 16324 ft 375 kts 177°
2026-05-03 20:47 55.48251 -2.99540 16964 ft 381 kts 161°
2026-05-03 20:47 55.45956 -2.97363 17653 ft 384 kts 140°
2026-05-03 20:48 55.44182 -2.93820 18328 ft 388 kts 125°
2026-05-03 20:48 55.42760 -2.89745 18878 ft 392 kts 119°
2026-05-03 20:48 55.41480 -2.85488 19461 ft 395 kts 117°
2026-05-03 20:48 55.40208 -2.81174 20034 ft 399 kts 118°
2026-05-03 20:49 55.38893 -2.76860 20604 ft 402 kts 119°
2026-05-03 20:49 55.37532 -2.72534 21153 ft 406 kts 119°
2026-05-03 20:49 55.36143 -2.68189 21699 ft 409 kts 120°
2026-05-03 20:49 55.34737 -2.63824 22241 ft 413 kts 120°
2026-05-03 20:50 55.33315 -2.59423 22774 ft 416 kts 120°
2026-05-03 20:50 55.31881 -2.54988 23302 ft 419 kts 120°
2026-05-03 20:50 55.30439 -2.50524 23779 ft 422 kts 120°
2026-05-03 20:50 55.28982 -2.46025 24213 ft 425 kts 120°
2026-05-03 20:51 55.27518 -2.41513 24665 ft 427 kts 120°
2026-05-03 20:51 55.26042 -2.36983 25096 ft 429 kts 120°
2026-05-03 20:51 55.24553 -2.32428 25514 ft 432 kts 120°
2026-05-03 20:51 55.23047 -2.27860 25912 ft 434 kts 121°
2026-05-03 20:52 55.21484 -2.23307 26319 ft 437 kts 120°
2026-05-03 20:52 55.19971 -2.18692 26708 ft 439 kts 120°
2026-05-03 20:52 55.18471 -2.14010 27073 ft 442 kts 120°
2026-05-03 20:52 55.16960 -2.09300 27452 ft 445 kts 120°
2026-05-03 20:53 55.15421 -2.04604 27828 ft 447 kts 121°
2026-05-03 20:53 55.13858 -1.99888 28192 ft 449 kts 121°
2026-05-03 20:53 55.12285 -1.95153 28545 ft 452 kts 121°
2026-05-03 20:53 55.10701 -1.90403 28887 ft 454 kts 121°
2026-05-03 20:54 55.09105 -1.85628 29229 ft 456 kts 121°
2026-05-03 20:54 55.05887 -1.76016 29862 ft 461 kts 121°
2026-05-03 20:54 55.04285 -1.71246 30147 ft 463 kts 121°
2026-05-03 20:55 55.02776 -1.66277 30437 ft 464 kts 116°
2026-05-03 20:55 55.01439 -1.61170 30813 ft 463 kts 115°
2026-05-03 20:55 55.00153 -1.56032 31190 ft 462 kts 114°
2026-05-03 20:55 54.98866 -1.50924 31533 ft 461 kts 115°
2026-05-03 20:56 54.97594 -1.45800 31896 ft 460 kts 115°
2026-05-03 20:56 54.96330 -1.40691 32193 ft 460 kts 115°
2026-05-03 20:56 54.95055 -1.35582 32488 ft 461 kts 115°
2026-05-03 20:56 54.93766 -1.30474 32816 ft 460 kts 115°
2026-05-03 20:57 54.92471 -1.25390 33147 ft 460 kts 116°
2026-05-03 20:57 54.91166 -1.20311 33446 ft 460 kts 116°
2026-05-03 20:57 54.89856 -1.15236 33713 ft 461 kts 116°
2026-05-03 20:57 54.88524 -1.10092 34031 ft 460 kts 116°
2026-05-03 20:58 54.87209 -1.05031 34277 ft 460 kts 116°
2026-05-03 20:58 54.85907 -1.00033 34489 ft 461 kts 116°
2026-05-03 20:58 54.84587 -0.94971 34721 ft 461 kts 116°
2026-05-03 20:58 54.83263 -0.89904 34973 ft 461 kts 116°
2026-05-03 20:59 54.80593 -0.79719 35003 ft 466 kts 116°
2026-05-03 20:59 54.77912 -0.69536 34984 ft 461 kts 117°
2026-05-03 21:00 54.76139 -0.62816 34994 ft 458 kts 117°
2026-05-03 21:00 54.72595 -0.49469 34995 ft 458 kts 117°
2026-05-03 21:01 54.69927 -0.39476 34989 ft 458 kts 117°
2026-05-03 21:01 54.67248 -0.29485 34988 ft 458 kts 117°
2026-05-03 21:02 54.64560 -0.19499 34984 ft 458 kts 117°
2026-05-03 21:02 54.61862 -0.09520 34985 ft 459 kts 117°
2026-05-03 21:03 54.59152 0.00459 34970 ft 460 kts 118°
2026-05-03 21:03 54.56429 0.10445 34976 ft 460 kts 118°
2026-05-03 21:04 54.53696 0.20419 34979 ft 461 kts 118°
2026-05-03 21:04 54.50948 0.30407 34972 ft 462 kts 118°
2026-05-03 21:05 54.48189 0.40395 34965 ft 462 kts 118°
2026-05-03 21:05 54.45440 0.50301 34963 ft 462 kts 118°
2026-05-03 21:06 54.42663 0.60264 34959 ft 462 kts 119°
2026-05-03 21:06 54.39878 0.70214 34962 ft 462 kts 119°
2026-05-03 21:07 54.37088 0.80139 34956 ft 462 kts 119°
2026-05-03 21:07 54.34287 0.90061 34953 ft 462 kts 119°
2026-05-03 21:08 54.31479 0.99964 34953 ft 462 kts 119°
2026-05-03 21:08 54.28667 1.09840 34936 ft 461 kts 120°
2026-05-03 21:09 54.25850 1.19691 34950 ft 461 kts 120°
2026-05-03 21:09 54.23024 1.29534 34934 ft 460 kts 120°
2026-05-03 21:10 54.20200 1.39328 34939 ft 460 kts 120°
2026-05-03 21:10 54.17367 1.49114 34936 ft 459 kts 120°
2026-05-03 21:11 54.14530 1.58870 34921 ft 459 kts 121°
2026-05-03 21:11 54.11690 1.68598 34927 ft 458 kts 121°
2026-05-03 21:12 54.08848 1.78292 34930 ft 457 kts 121°
2026-05-03 21:12 54.05997 1.87975 34928 ft 457 kts 121°
2026-05-03 21:13 54.03142 1.97632 34926 ft 457 kts 121°
2026-05-03 21:13 54.00280 2.07278 34924 ft 457 kts 121°
2026-05-03 21:14 53.97891 2.15295 34911 ft 457 kts 121°
2026-05-03 21:14 53.95014 2.24918 34915 ft 457 kts 121°
2026-05-03 21:15 53.92131 2.34522 34915 ft 457 kts 121°
2026-05-03 21:15 53.89240 2.44113 34915 ft 457 kts 121°
2026-05-03 21:16 53.86333 2.53718 34920 ft 457 kts 121°
2026-05-03 21:16 53.83424 2.63292 34812 ft 459 kts 121°
2026-05-03 21:17 53.81947 2.68130 34257 ft 464 kts 122°
2026-05-03 21:17 53.80469 2.72974 33615 ft 463 kts 122°
2026-05-03 21:17 53.78996 2.77789 33046 ft 459 kts 122°
2026-05-03 21:17 53.77537 2.82558 32568 ft 454 kts 122°
2026-05-03 21:18 53.76089 2.87275 32096 ft 450 kts 122°
2026-05-03 21:18 53.74656 2.91934 31632 ft 445 kts 122°
2026-05-03 21:18 53.73233 2.96548 31172 ft 441 kts 123°
2026-05-03 21:18 53.71817 3.01130 30726 ft 437 kts 123°
2026-05-03 21:19 53.70414 3.05662 30284 ft 434 kts 123°
2026-05-03 21:19 53.69023 3.10151 29804 ft 430 kts 123°
2026-05-03 21:19 53.67636 3.14597 29303 ft 425 kts 124°
2026-05-03 21:19 53.66044 3.18691 28875 ft 412 kts 134°
2026-05-03 21:20 53.64134 3.22196 28435 ft 400 kts 144°
2026-05-03 21:20 53.62028 3.25220 28011 ft 395 kts 146°
2026-05-03 21:20 53.59917 3.28151 27375 ft 394 kts 147°
2026-05-03 21:20 53.57746 3.31020 26588 ft 399 kts 147°
2026-05-03 21:21 53.55512 3.33907 25378 ft 414 kts 147°
2026-05-03 21:21 53.53203 3.36875 24589 ft 419 kts 146°
2026-05-03 21:21 53.50911 3.39836 24137 ft 413 kts 146°
2026-05-03 21:21 53.48624 3.42797 23330 ft 417 kts 146°
2026-05-03 21:22 53.46322 3.45782 22555 ft 418 kts 146°
2026-05-03 21:22 53.44034 3.48752 21818 ft 416 kts 146°
2026-05-03 21:22 53.41736 3.51734 20972 ft 419 kts 146°
2026-05-03 21:22 53.39434 3.54719 20306 ft 416 kts 146°
2026-05-03 21:23 53.37159 3.57668 19744 ft 411 kts 146°
2026-05-03 21:23 53.34918 3.60576 19330 ft 403 kts 145°
2026-05-03 21:23 53.32722 3.63517 18687 ft 404 kts 144°
2026-05-03 21:23 53.30557 3.66480 18177 ft 400 kts 143°
2026-05-03 21:24 53.28425 3.69413 17668 ft 394 kts 143°
2026-05-03 21:24 53.26328 3.72295 17177 ft 388 kts 143°
2026-05-03 21:24 53.24255 3.75132 16726 ft 382 kts 144°
2026-05-03 21:24 53.22209 3.77922 16285 ft 377 kts 144°
2026-05-03 21:25 53.20216 3.80630 15864 ft 372 kts 144°
2026-05-03 21:25 53.18220 3.83336 15428 ft 367 kts 144°
2026-05-03 21:25 53.16247 3.86004 15013 ft 363 kts 144°
2026-05-03 21:25 53.14269 3.88675 14592 ft 359 kts 144°
2026-05-03 21:26 53.12363 3.91245 14189 ft 356 kts 144°
2026-05-03 21:26 53.10424 3.93858 13775 ft 353 kts 144°
2026-05-03 21:26 53.08548 3.96381 13341 ft 350 kts 144°
2026-05-03 21:26 53.06664 3.98914 12901 ft 347 kts 144°
2026-05-03 21:27 53.04796 4.01422 12485 ft 343 kts 144°
2026-05-03 21:27 53.02950 4.03897 12080 ft 340 kts 144°
2026-05-03 21:27 53.01113 4.06358 11674 ft 337 kts 144°
2026-05-03 21:27 52.99296 4.08788 11284 ft 334 kts 144°
2026-05-03 21:28 52.97500 4.11189 10897 ft 331 kts 144°
2026-05-03 21:28 52.95716 4.13570 10514 ft 328 kts 144°
2026-05-03 21:28 52.93959 4.15915 10350 ft 318 kts 144°
2026-05-03 21:28 52.92259 4.18183 10199 ft 309 kts 144°
2026-05-03 21:29 52.90611 4.20379 10056 ft 300 kts 144°
2026-05-03 21:29 52.89012 4.22506 9927 ft 291 kts 144°
2026-05-03 21:29 52.87463 4.24565 9805 ft 282 kts 144°
2026-05-03 21:29 52.85918 4.26612 9398 ft 284 kts 144°
2026-05-03 21:30 52.84379 4.28651 9083 ft 283 kts 144°
2026-05-03 21:30 52.82851 4.30672 8777 ft 281 kts 144°
2026-05-03 21:30 52.81325 4.32691 8477 ft 279 kts 144°
2026-05-03 21:30 52.79813 4.34688 8215 ft 276 kts 144°
2026-05-03 21:31 52.78319 4.36662 7939 ft 274 kts 144°
2026-05-03 21:31 52.76831 4.38626 7664 ft 273 kts 145°
2026-05-03 21:31 52.75356 4.40571 7382 ft 271 kts 145°
2026-05-03 21:31 52.73881 4.42514 7098 ft 270 kts 145°
2026-05-03 21:32 52.72415 4.44442 6811 ft 269 kts 145°
2026-05-03 21:32 52.70956 4.46361 6540 ft 268 kts 145°
2026-05-03 21:32 52.69498 4.48276 6255 ft 268 kts 145°
2026-05-03 21:32 52.68044 4.50184 5966 ft 267 kts 144°
2026-05-03 21:33 52.66594 4.52086 5662 ft 266 kts 144°
2026-05-03 21:33 52.65154 4.53974 5375 ft 265 kts 144°
2026-05-03 21:33 52.63709 4.55865 5095 ft 263 kts 144°
2026-05-03 21:33 52.62279 4.57736 4827 ft 262 kts 144°
2026-05-03 21:34 52.60854 4.59599 4548 ft 261 kts 144°
2026-05-03 21:34 52.59437 4.61451 4266 ft 260 kts 144°
2026-05-03 21:34 52.58029 4.63288 4048 ft 256 kts 144°
2026-05-03 21:34 52.56656 4.65081 3938 ft 248 kts 144°
2026-05-03 21:35 52.55325 4.66817 3827 ft 240 kts 144°
2026-05-03 21:35 52.54038 4.68495 3715 ft 232 kts 144°
2026-05-03 21:35 52.52795 4.70112 3624 ft 224 kts 144°
2026-05-03 21:35 52.51585 4.71684 3481 ft 223 kts 144°
2026-05-03 21:36 52.50369 4.73261 3271 ft 223 kts 144°
2026-05-03 21:36 52.49168 4.74780 3090 ft 217 kts 151°
2026-05-03 21:36 52.47797 4.75399 2886 ft 200 kts 188°
2026-05-03 21:36 52.46437 4.75142 2631 ft 196 kts 185°
2026-05-03 21:37 52.45081 4.75076 2392 ft 193 kts 185°
2026-05-03 21:37 52.43760 4.74979 2130 ft 186 kts 186°
2026-05-03 21:37 52.42508 4.74869 1887 ft 174 kts 186°
2026-05-03 21:37 52.41347 4.74766 1671 ft 159 kts 186°
2026-05-03 21:38 52.40286 4.74664 1432 ft 148 kts 186°
2026-05-03 21:38 52.39273 4.74566 1224 ft 145 kts 187°
2026-05-03 21:38 52.38267 4.74463 1014 ft 145 kts 185°
2026-05-03 21:38 52.37262 4.74395 821 ft 144 kts 185°
2026-05-03 21:39 52.36262 4.74300 640 ft 144 kts 186°
2026-05-03 21:39 52.35260 4.74202 485 ft 144 kts 184°
2026-05-03 21:39 52.34257 4.74102 283 ft 145 kts 185°
2026-05-03 21:39 52.33250 4.74024 83 ft 146 kts 186°
2026-05-03 21:40 52.32268 4.73924 -3 ft 131 kts 181°
2026-05-03 21:40 52.31501 4.73858 -4 ft 61 kts 182°
2026-05-03 21:40 52.31205 4.73902 -2 ft 33 kts 155°
2026-05-03 21:40 52.31106 4.74042 -2 ft 16 kts 87°
2026-05-03 21:41 52.31191 4.74120 -2 ft 15 kts
2026-05-03 21:41 52.31296 4.74129 -2 ft 15 kts
2026-05-03 21:41 52.31382 4.74189 -2 ft 14 kts 72°
2026-05-03 21:41 52.31390 4.74346 -2 ft 14 kts 88°
2026-05-03 21:42 52.31395 4.74495 -2 ft 13 kts 87°
2026-05-03 21:42 52.31399 4.74646 -2 ft 15 kts 87°
2026-05-03 21:42 52.31406 4.74848 -2 ft 21 kts 87°
2026-05-03 21:42 52.31414 4.75105 -2 ft 23 kts 87°
2026-05-03 21:43 52.31423 4.75361 -2 ft 22 kts 87°
2026-05-03 21:43 52.31432 4.75611 -2 ft 22 kts 86°
2026-05-03 21:43 52.31441 4.75852 -2 ft 21 kts 87°
2026-05-03 21:43 52.31449 4.76087 -2 ft 20 kts 86°
2026-05-03 21:44 52.31457 4.76312 -2 ft 20 kts 87°
2026-05-03 21:44 52.31465 4.76535 -2 ft 19 kts 87°
2026-05-03 21:44 52.31472 4.76746 -2 ft 19 kts 87°
2026-05-03 21:44 52.31478 4.76952 -2 ft 18 kts 87°
2026-05-03 21:45 52.31473 4.77150 -2 ft 17 kts 110°
2026-05-03 21:45 52.31402 4.77304 -2 ft 16 kts 131°
2026-05-03 21:45 52.31328 4.77439 -2 ft 16 kts 133°
2026-05-03 21:45 52.31233 4.77503 -2 ft 15 kts 179°
2026-05-03 21:46 52.31131 4.77494 -2 ft 14 kts 183°
2026-05-03 21:46 52.31035 4.77485 -2 ft 13 kts 183°
2026-05-03 21:46 52.30943 4.77475 -2 ft 13 kts 184°
2026-05-03 21:46 52.30858 4.77463 -2 ft 12 kts 200°
2026-05-03 21:47 52.30841 4.77344 -2 ft 10 kts 275°
2026-05-03 21:47 52.30876 4.77300 -2 ft 7 kts
2026-05-03 21:47 52.30894 4.77302 -2 ft 1 kts
2026-05-03 21:47 52.30897 4.77302 -2 ft 0 kts